GW1062 Weather Reports


Display with metric or nautical units.
time (UTC)temp
F
wind
direction
speed
MPH
gust
MPH
rain 1hr
in
rain 24hr
in
rain mn
in
humidity
%
barometer
mb
20260504234503 66 5 15.0 22.0 0.00 0.00 0.00 33 964.5
20260504233002 68 6 11.0 24.0 0.00 0.00 0.00 33 964.1
20260504231506 68 6 11.0 26.0 0.00 0.00 0.00 34 964.0
20260504230002 70 4 14.0 26.0 0.00 0.00 0.00 33 963.9
20260504224501 70 6 8.0 19.0 0.00 0.00 0.00 32 963.6
20260504223100 71 6 11.0 23.0 0.00 0.00 0.00 32 963.3
20260504221605 72 6 12.0 22.0 0.00 0.00 0.00 32 963.0
20260504220059 72 6 10.0 20.0 0.00 0.00 0.00 32 962.9
20260504214603 72 6 13.0 23.0 0.00 0.00 0.00 31 962.6
20260504213103 73 6 13.0 22.0 0.00 0.00 0.00 31 962.5
20260504211555 73 6 11.0 21.0 0.00 0.00 0.00 31 962.3
20260504204634 75 6 9.0 19.0 0.00 0.00 0.00 34 962.1
20260504203052 75 5 13.0 23.0 0.00 0.00 0.00 33 961.9
20260504201551 76 6 11.0 22.0 0.00 0.00 0.00 36 961.9
20260504200055 77 6 8.0 23.0 0.00 0.00 0.00 39 961.6
20260504194553 77 5 11.0 22.0 0.00 0.00 0.00 38 961.4
20260504193047 78 6 13.0 25.0 0.00 0.00 0.00 35 961.3
20260504191547 78 5 12.0 23.0 0.00 0.00 0.00 36 961.0
20260504190055 79 4 16.0 24.0 0.00 0.00 0.00 29 961.1
20260504184558 80 5 14.0 30.0 0.00 0.00 0.00 31 961.0
20260504183041 79 5 13.0 25.0 0.00 0.00 0.00 30 961.2
20260504181539 79 6 16.0 28.0 0.00 0.00 0.00 31 961.3
20260504180038 78 4 16.0 26.0 0.00 0.00 0.00 31 961.3
20260504174536 79 4 16.0 26.0 0.00 0.00 0.00 33 961.4
20260504173033 78 4 17.0 29.0 0.00 0.00 0.00 32 961.5
20260504171540 78 5 15.0 27.0 0.00 0.00 0.00 32 961.5
20260504081504 56 360 5.0 10.0 0.00 0.00 0.00 50 965.0
20260504044539 57 360 0.0 3.0 0.00 0.00 0.00 44 967.4
20260504043030 58 360 1.0 4.0 0.00 0.00 0.00 44 967.6
20260504041530 57 360 1.0 4.0 0.00 0.00 0.00 44 967.8
20260504040027 56 360 0.0 2.0 0.00 0.00 0.00 45 967.9
20260504034526 57 360 0.0 3.0 0.00 0.00 0.00 45 968.1
20260504033025 61 360 0.0 1.0 0.00 0.00 0.00 39 968.3
20260504031525 62 360 0.0 3.0 0.00 0.00 0.00 37 968.4
20260504030036 62 360 1.0 3.0 0.00 0.00 0.00 37 968.4
20260504024525 62 360 0.0 2.0 0.00 0.00 0.00 37 968.5
20260504023024 64 360 2.0 4.0 0.00 0.00 0.00 35 968.2
20260504021527 64 360 1.0 3.0 0.00 0.00 0.00 35 968.1
20260504020022 64 360 0.0 2.0 0.00 0.00 0.00 34 968.2
20260504014522 65 360 0.0 3.0 0.00 0.00 0.00 34 968.1
20260504013022 65 360 2.0 5.0 0.00 0.00 0.00 34 968.2
20260504011523 66 6 3.0 8.0 0.00 0.00 0.00 33 968.3
20260504010022 68 5 7.0 9.0 0.00 0.00 0.00 31 968.2
20260504004522 69 5 5.0 9.0 0.00 0.00 0.00 30 968.2
20260504003019 70 6 2.0 9.0 0.00 0.00 0.00 29 968.3
20260504001518 71 5 5.0 13.0 0.00 0.00 0.00 28 968.2
20260504000017 71 5 5.0 12.0 0.00 0.00 0.00 28 968.3